| time (UTC) | temp C | wind direction | speed KPH | gust KPH | rain 1hr cm | rain 24hr cm | rain mn cm | humidity % | barometer mb |
| 20260902163524 | 30 | 73 | 8.0 | 17.7 | 0.00 | 0.46 | 0.03 | 79 | 1015.5 |
| 20260902163046 | 30 | 5 | 1.6 | 16.1 | 0.00 | 0.46 | 0.03 | 81 | 1015.5 |
| 20260902162525 | 30 | 328 | 6.4 | 16.1 | 0.00 | 0.46 | 0.03 | 77 | 1015.5 |
| 20260902162026 | 30 | 46 | 1.6 | 17.7 | 0.00 | 0.46 | 0.03 | 82 | 1015.5 |
| 20260902161543 | 28 | 23 | 4.8 | 19.3 | 0.00 | 0.46 | 0.03 | 85 | 1015.6 |
| 20260902161026 | 28 | 49 | 9.7 | 19.3 | 0.00 | 0.46 | 0.03 | 83 | 1015.6 |
| 20260902160525 | 29 | 53 | 4.8 | 16.1 | 0.00 | 0.46 | 0.03 | 82 | 1015.7 |
| 20260902160053 | 30 | 313 | 1.6 | 8.0 | 0.00 | 0.46 | 0.03 | 80 | 1015.8 |
| 20260902155525 | 31 | 352 | 1.6 | 12.9 | 0.00 | 0.46 | 0.03 | 84 | 1015.8 |
| 20260902155026 | 30 | 277 | 3.2 | 12.9 | 0.00 | 0.46 | 0.03 | 80 | 1015.9 |
| 20260902154555 | 30 | 62 | 4.8 | 17.7 | 0.00 | 0.46 | 0.03 | 79 | 1016.0 |
| 20260902154028 | 30 | 96 | 6.4 | 17.7 | 0.00 | 0.46 | 0.03 | 80 | 1016.1 |
| 20260902153525 | 30 | 53 | 4.8 | 16.1 | 0.00 | 0.46 | 0.03 | 82 | 1016.1 |
| 20260902153044 | 28 | 22 | 3.2 | 9.7 | 0.00 | 0.46 | 0.03 | 84 | 1016.1 |
| 20260902152521 | 28 | 271 | 3.2 | 14.5 | 0.00 | 0.46 | 0.03 | 84 | 1016.2 |
| 20260902152020 | 30 | 350 | 4.8 | 16.1 | 0.00 | 0.46 | 0.03 | 82 | 1016.2 |
| 20260902151549 | 30 | 59 | 6.4 | 19.3 | 0.00 | 0.46 | 0.03 | 80 | 1016.2 |
| 20260902151022 | 30 | 85 | 8.0 | 22.5 | 0.00 | 0.46 | 0.03 | 82 | 1016.1 |
| 20260902150524 | 29 | 51 | 11.3 | 22.5 | 0.00 | 0.46 | 0.03 | 82 | 1016.2 |
| 20260902150048 | 29 | 45 | 6.4 | 14.5 | 0.00 | 0.46 | 0.03 | 83 | 1016.2 |
| 20260902145523 | 29 | 64 | 4.8 | 12.9 | 0.00 | 0.46 | 0.03 | 85 | 1016.2 |
| 20260902145030 | 29 | 26 | 4.8 | 11.3 | 0.00 | 0.46 | 0.03 | 83 | 1016.1 |
| 20260902144545 | 29 | 56 | 3.2 | 11.3 | 0.00 | 0.46 | 0.03 | 88 | 1016.1 |
| 20260902144024 | 28 | 12 | 3.2 | 14.5 | 0.00 | 0.46 | 0.03 | 88 | 1016.0 |
| 20260902143522 | 28 | 74 | 3.2 | 14.5 | 0.00 | 0.46 | 0.03 | 88 | 1016.0 |
| 20260902143040 | 28 | 55 | 1.6 | 14.5 | 0.00 | 0.46 | 0.03 | 89 | 1016.0 |
| 20260902142524 | 28 | 45 | 4.8 | 14.5 | 0.00 | 0.46 | 0.03 | 89 | 1016.0 |
| 20260902142025 | 28 | 67 | 4.8 | 9.7 | 0.00 | 0.46 | 0.03 | 90 | 1016.1 |
| 20260902141553 | 27 | 61 | 3.2 | 12.9 | 0.00 | 0.46 | 0.03 | 91 | 1016.0 |
| 20260902141024 | 27 | 17 | 1.6 | 12.9 | 0.00 | 0.46 | 0.03 | 91 | 1016.0 |
| 20260902140525 | 28 | 61 | 1.6 | 8.0 | 0.00 | 0.46 | 0.03 | 93 | 1016.0 |
| 20260902140043 | 27 | 33 | 1.6 | 14.5 | 0.00 | 0.46 | 0.03 | 94 | 1015.9 |
| 20260902135523 | 27 | 5 | 3.2 | 14.5 | 0.00 | 0.46 | 0.03 | 94 | 1015.9 |
| 20260902135020 | 27 | 13 | 3.2 | 11.3 | 0.00 | 0.46 | 0.03 | 95 | 1015.8 |
| 20260902134543 | 27 | 81 | 3.2 | 8.0 | 0.00 | 0.46 | 0.03 | 96 | 1015.9 |
| 20260902134022 | 26 | 61 | 3.2 | 12.9 | 0.00 | 0.46 | 0.03 | 96 | 1015.9 |
| 20260902133529 | 26 | 60 | 4.8 | 12.9 | 0.00 | 0.46 | 0.03 | 97 | 1015.8 |
| 20260902133049 | 26 | 42 | 4.8 | 12.9 | 0.00 | 0.46 | 0.03 | 97 | 1015.9 |
| 20260902132527 | 26 | 29 | 4.8 | 14.5 | 0.00 | 0.46 | 0.03 | 97 | 1015.9 |
| 20260902132024 | 26 | 38 | 6.4 | 14.5 | 0.00 | 0.46 | 0.03 | 97 | 1015.9 |
| 20260902131605 | 26 | 57 | 1.6 | 8.0 | 0.00 | 0.46 | 0.03 | 97 | 1015.9 |
| 20260902131023 | 26 | 351 | 1.6 | 6.4 | 0.00 | 0.46 | 0.03 | 97 | 1015.8 |
| 20260902130519 | 26 | 13 | 1.6 | 6.4 | 0.00 | 0.46 | 0.03 | 97 | 1015.9 |
| 20260902130052 | 26 | 0 | 0.0 | 8.0 | 0.00 | 0.46 | 0.03 | 97 | 1016.0 |
| 20260902125523 | 26 | 0 | 1.6 | 8.0 | 0.00 | 0.46 | 0.03 | 97 | 1016.0 |
| 20260902125023 | 26 | 31 | 1.6 | 8.0 | 0.00 | 0.46 | 0.03 | 97 | 1016.0 |
| 20260902124540 | 26 | 55 | 1.6 | 8.0 | 0.00 | 0.46 | 0.03 | 97 | 1016.0 |
| 20260902124024 | 26 | 0 | 0.0 | 6.4 | 0.00 | 0.46 | 0.03 | 97 | 1015.9 |
| 20260902123524 | 25 | 0 | 0.0 | 8.0 | 0.00 | 0.46 | 0.03 | 97 | 1016.0 |
| 20260902123048 | 25 | 0 | 1.6 | 8.0 | 0.00 | 0.46 | 0.03 | 97 | 1015.9 |
| 20260902122524 | 25 | 0 | 0.0 | 3.2 | 0.00 | 0.46 | 0.03 | 97 | 1015.9 |
| 20260902122020 | 25 | 0 | 0.0 | 3.2 | 0.00 | 0.46 | 0.03 | 97 | 1015.9 |
| 20260902121546 | 25 | 0 | 0.0 | 0.0 | 0.00 | 0.46 | 0.03 | 97 | 1015.9 |
| 20260902121026 | 25 | 0 | 0.0 | 0.0 | 0.00 | 0.46 | 0.03 | 97 | 1015.9 |
| 20260902120524 | 25 | 0 | 0.0 | 0.0 | 0.00 | 0.46 | 0.03 | 97 | 1015.8 |
| 20260902120049 | 25 | 0 | 0.0 | 0.0 | 0.00 | 0.46 | 0.03 | 97 | 1015.7 |
| 20260902115525 | 24 | 0 | 0.0 | 0.0 | 0.00 | 0.46 | 0.03 | 97 | 1015.7 |
| 20260902115025 | 24 | 0 | 0.0 | 0.0 | 0.00 | 0.46 | 0.03 | 97 | 1015.7 |
| 20260902114607 | 24 | 0 | 0.0 | 0.0 | 0.00 | 0.46 | 0.03 | 97 | 1015.6 |
| 20260902114022 | 24 | 0 | 0.0 | 0.0 | 0.00 | 0.46 | 0.03 | 97 | 1015.6 |
| 20260902113524 | 24 | 0 | 0.0 | 0.0 | 0.00 | 0.46 | 0.03 | 97 | 1015.7 |
| 20260902113042 | 24 | 0 | 0.0 | 0.0 | 0.00 | 0.46 | 0.03 | 97 | 1015.6 |
| 20260902112523 | 24 | 0 | 0.0 | 0.0 | 0.00 | 0.46 | 0.03 | 97 | 1015.5 |
| 20260902112023 | 23 | 0 | 0.0 | 0.0 | 0.00 | 0.46 | 0.03 | 97 | 1015.4 |
| 20260902111543 | 23 | 0 | 0.0 | 0.0 | 0.00 | 0.46 | 0.03 | 97 | 1015.4 |
| 20260902111024 | 23 | 0 | 0.0 | 0.0 | 0.00 | 0.46 | 0.03 | 97 | 1015.4 |
| 20260902110525 | 23 | 0 | 0.0 | 0.0 | 0.00 | 0.46 | 0.03 | 97 | 1015.3 |
| 20260902110100 | 23 | 0 | 0.0 | 0.0 | 0.00 | 0.46 | 0.03 | 97 | 1015.3 |
| 20260902105525 | 23 | 0 | 0.0 | 0.0 | 0.00 | 0.46 | 0.03 | 97 | 1015.3 |
| 20260902105029 | 23 | 0 | 0.0 | 0.0 | 0.00 | 0.46 | 0.03 | 97 | 1015.2 |
| 20260902104545 | 23 | 0 | 0.0 | 0.0 | 0.00 | 0.46 | 0.03 | 97 | 1015.2 |
| 20260902104026 | 23 | 0 | 0.0 | 0.0 | 0.00 | 0.46 | 0.03 | 97 | 1015.2 |
| 20260902103524 | 23 | 0 | 0.0 | 0.0 | 0.00 | 0.46 | 0.03 | 97 | 1015.2 |
| 20260902103050 | 23 | 0 | 0.0 | 0.0 | 0.00 | 0.46 | 0.03 | 97 | 1015.1 |
| 20260902102525 | 23 | 0 | 0.0 | 0.0 | 0.00 | 0.46 | 0.03 | 97 | 1015.0 |
| 20260902102023 | 23 | 0 | 0.0 | 0.0 | 0.00 | 0.46 | 0.03 | 97 | 1015.0 |
| 20260902101547 | 23 | 0 | 0.0 | 0.0 | 0.00 | 0.46 | 0.03 | 97 | 1015.1 |
| 20260902101025 | 23 | 0 | 0.0 | 0.0 | 0.00 | 0.46 | 0.03 | 97 | 1015.0 |
| 20260902100525 | 23 | 0 | 0.0 | 0.0 | 0.00 | 0.46 | 0.03 | 97 | 1014.9 |
| 20260902100050 | 23 | 0 | 0.0 | 0.0 | 0.00 | 0.46 | 0.03 | 97 | 1014.9 |
| 20260902095521 | 23 | 0 | 0.0 | 0.0 | 0.00 | 0.46 | 0.03 | 97 | 1014.9 |
| 20260902095023 | 23 | 0 | 0.0 | 0.0 | 0.00 | 0.46 | 0.03 | 97 | 1014.9 |
| 20260902094543 | 23 | 0 | 0.0 | 0.0 | 0.00 | 0.46 | 0.03 | 97 | 1014.9 |
| 20260902094026 | 23 | 0 | 0.0 | 0.0 | 0.00 | 0.46 | 0.03 | 97 | 1014.9 |
| 20260902093523 | 23 | 0 | 0.0 | 0.0 | 0.00 | 0.46 | 0.03 | 97 | 1014.8 |
| 20260902093043 | 23 | 0 | 0.0 | 0.0 | 0.00 | 0.46 | 0.03 | 97 | 1014.6 |
| 20260902092524 | 23 | 0 | 0.0 | 0.0 | 0.00 | 0.46 | 0.03 | 97 | 1014.6 |
| 20260902092024 | 23 | 0 | 0.0 | 0.0 | 0.00 | 0.46 | 0.03 | 97 | 1014.6 |
| 20260902091540 | 23 | 0 | 0.0 | 0.0 | 0.00 | 0.46 | 0.03 | 97 | 1014.6 |
| 20260902091025 | 23 | 0 | 0.0 | 0.0 | 0.00 | 0.46 | 0.03 | 97 | 1014.6 |
| 20260902090524 | 23 | 0 | 0.0 | 0.0 | 0.00 | 0.46 | 0.03 | 97 | 1014.4 |
| 20260902090044 | 23 | 0 | 0.0 | 0.0 | 0.00 | 0.46 | 0.03 | 97 | 1014.4 |
| 20260902085522 | 23 | 0 | 0.0 | 0.0 | 0.00 | 0.46 | 0.03 | 97 | 1014.4 |
| 20260902085023 | 23 | 0 | 0.0 | 0.0 | 0.00 | 0.46 | 0.03 | 97 | 1014.4 |
| 20260902084542 | 23 | 0 | 0.0 | 0.0 | 0.00 | 0.46 | 0.03 | 97 | 1014.4 |
| 20260902084023 | 23 | 0 | 0.0 | 0.0 | 0.00 | 0.46 | 0.03 | 97 | 1014.3 |
| 20260902083524 | 23 | 0 | 0.0 | 0.0 | 0.00 | 0.46 | 0.03 | 97 | 1014.5 |
| 20260902083047 | 23 | 0 | 0.0 | 0.0 | 0.00 | 0.46 | 0.03 | 97 | 1014.5 |
| 20260902082527 | 23 | 0 | 0.0 | 0.0 | 0.00 | 0.46 | 0.03 | 97 | 1014.5 |
| 20260902082024 | 23 | 0 | 0.0 | 0.0 | 0.00 | 0.46 | 0.03 | 97 | 1014.5 |
| 20260902081550 | 23 | 0 | 0.0 | 0.0 | 0.00 | 0.46 | 0.03 | 97 | 1014.6 |
| 20260902081024 | 23 | 0 | 0.0 | 0.0 | 0.00 | 0.46 | 0.03 | 97 | 1014.6 |
| 20260902080524 | 23 | 0 | 0.0 | 0.0 | 0.03 | 0.46 | 0.03 | 97 | 1014.6 |
| 20260902080050 | 23 | 0 | 0.0 | 0.0 | 0.03 | 0.46 | 0.03 | 97 | 1014.6 |
| 20260902075527 | 23 | 0 | 0.0 | 0.0 | 0.03 | 0.46 | 0.03 | 97 | 1014.6 |
| 20260902075023 | 23 | 0 | 0.0 | 0.0 | 0.03 | 0.46 | 0.03 | 97 | 1014.5 |
| 20260902074554 | 23 | 0 | 0.0 | 0.0 | 0.03 | 0.46 | 0.03 | 97 | 1014.5 |
| 20260902074026 | 23 | 0 | 0.0 | 0.0 | 0.03 | 0.46 | 0.03 | 97 | 1014.5 |
| 20260902073526 | 23 | 0 | 0.0 | 0.0 | 0.03 | 0.46 | 0.03 | 97 | 1014.5 |
| 20260902073052 | 23 | 0 | 0.0 | 0.0 | 0.03 | 0.46 | 0.03 | 97 | 1014.6 |
| 20260902072526 | 23 | 0 | 0.0 | 0.0 | 0.03 | 0.46 | 0.03 | 97 | 1014.6 |
| 20260902072026 | 23 | 0 | 0.0 | 0.0 | 0.03 | 0.46 | 0.03 | 97 | 1014.5 |
| 20260902071544 | 23 | 0 | 0.0 | 0.0 | 0.03 | 0.46 | 0.03 | 97 | 1014.5 |
| 20260902071028 | 23 | 0 | 0.0 | 0.0 | 0.03 | 0.46 | 0.03 | 97 | 1014.7 |
| 20260902070523 | 23 | 0 | 0.0 | 0.0 | 0.00 | 0.43 | 0.00 | 97 | 1014.7 |
| 20260902070042 | 23 | 0 | 0.0 | 0.0 | 0.00 | 0.43 | 0.00 | 97 | 1014.6 |
| 20260902065519 | 23 | 0 | 0.0 | 0.0 | 0.00 | 0.43 | 0.00 | 97 | 1014.7 |
| 20260902065025 | 23 | 0 | 0.0 | 0.0 | 0.00 | 0.43 | 0.00 | 97 | 1014.9 |
| 20260902064541 | 23 | 0 | 0.0 | 0.0 | 0.00 | 0.43 | 0.00 | 97 | 1015.0 |
| 20260902064024 | 23 | 0 | 0.0 | 0.0 | 0.00 | 0.43 | 0.00 | 97 | 1014.9 |
| 20260902063527 | 23 | 0 | 0.0 | 0.0 | 0.00 | 0.43 | 0.00 | 97 | 1015.0 |
| 20260902063050 | 23 | 0 | 0.0 | 0.0 | 0.00 | 0.43 | 0.00 | 97 | 1015.1 |
| 20260902062524 | 23 | 0 | 0.0 | 0.0 | 0.00 | 0.43 | 0.00 | 97 | 1015.1 |
| 20260902062023 | 23 | 0 | 0.0 | 0.0 | 0.00 | 0.43 | 0.00 | 97 | 1015.1 |
| 20260902061543 | 23 | 0 | 0.0 | 0.0 | 0.00 | 0.43 | 0.00 | 97 | 1015.0 |
| 20260902061030 | 23 | 0 | 0.0 | 0.0 | 0.00 | 0.43 | 0.00 | 97 | 1015.0 |
| 20260902060519 | 23 | 0 | 0.0 | 0.0 | 0.00 | 0.43 | 0.00 | 97 | 1015.0 |
| 20260902060110 | 23 | 0 | 0.0 | 0.0 | 0.00 | 0.43 | 0.00 | 97 | 1015.1 |
| 20260902055520 | 23 | 0 | 0.0 | 0.0 | 0.00 | 0.43 | 0.00 | 97 | 1015.2 |
| 20260902055026 | 23 | 0 | 0.0 | 0.0 | 0.00 | 0.43 | 0.00 | 97 | 1015.2 |
| 20260902054541 | 23 | 0 | 0.0 | 0.0 | 0.00 | 0.43 | 0.00 | 97 | 1015.4 |
| 20260902054024 | 23 | 0 | 0.0 | 0.0 | 0.00 | 0.43 | 0.00 | 97 | 1015.3 |
| 20260902053520 | 23 | 0 | 0.0 | 0.0 | 0.00 | 0.43 | 0.00 | 97 | 1015.3 |
| 20260902053042 | 24 | 0 | 0.0 | 0.0 | 0.00 | 0.43 | 0.00 | 97 | 1015.3 |
| 20260902052523 | 24 | 0 | 0.0 | 0.0 | 0.00 | 0.43 | 0.00 | 97 | 1015.3 |
| 20260902052018 | 24 | 0 | 0.0 | 0.0 | 0.00 | 0.43 | 0.00 | 97 | 1015.2 |
| 20260902051540 | 24 | 0 | 0.0 | 0.0 | 0.00 | 0.43 | 0.00 | 97 | 1015.3 |
| 20260902051020 | 24 | 0 | 0.0 | 0.0 | 0.00 | 0.43 | 0.00 | 97 | 1015.4 |
| 20260902050521 | 24 | 0 | 0.0 | 0.0 | 0.00 | 0.43 | 0.00 | 96 | 1015.2 |
| 20260902050041 | 24 | 0 | 0.0 | 0.0 | 0.00 | 0.43 | 0.00 | 97 | 1015.3 |
| 20260902045523 | 24 | 0 | 0.0 | 0.0 | 0.00 | 0.43 | 0.00 | 97 | 1015.3 |
| 20260902045024 | 24 | 0 | 0.0 | 0.0 | 0.00 | 0.43 | 0.00 | 96 | 1015.3 |
| 20260902044543 | 24 | 0 | 0.0 | 0.0 | 0.00 | 0.43 | 0.00 | 96 | 1015.3 |
| 20260902044023 | 24 | 0 | 0.0 | 0.0 | 0.00 | 0.43 | 0.00 | 96 | 1015.3 |
| 20260902043523 | 24 | 0 | 0.0 | 0.0 | 0.00 | 0.43 | 0.00 | 96 | 1015.3 |
| 20260902043048 | 24 | 0 | 0.0 | 0.0 | 0.00 | 0.43 | 0.00 | 96 | 1015.2 |
| 20260902042522 | 24 | 0 | 0.0 | 0.0 | 0.00 | 0.43 | 0.00 | 97 | 1015.4 |
| 20260902042019 | 24 | 0 | 0.0 | 0.0 | 0.00 | 0.43 | 0.00 | 97 | 1015.4 |
| 20260902041549 | 24 | 0 | 0.0 | 0.0 | 0.00 | 0.43 | 0.00 | 96 | 1015.4 |
| 20260902041020 | 24 | 0 | 0.0 | 0.0 | 0.00 | 0.43 | 0.00 | 96 | 1015.5 |
| 20260902040521 | 24 | 0 | 0.0 | 0.0 | 0.00 | 0.43 | 0.00 | 96 | 1015.5 |
| 20260902040041 | 25 | 0 | 0.0 | 0.0 | 0.00 | 0.43 | 0.00 | 96 | 1015.6 |
| 20260902035521 | 24 | 0 | 0.0 | 0.0 | 0.00 | 0.43 | 0.43 | 96 | 1015.7 |
| 20260902035023 | 25 | 0 | 0.0 | 0.0 | 0.00 | 0.43 | 0.43 | 96 | 1015.7 |
| 20260902034544 | 25 | 0 | 0.0 | 0.0 | 0.00 | 0.43 | 0.43 | 96 | 1015.7 |
| 20260902034023 | 25 | 0 | 0.0 | 0.0 | 0.00 | 0.43 | 0.43 | 96 | 1015.8 |
| 20260902033519 | 25 | 0 | 0.0 | 0.0 | 0.00 | 0.43 | 0.43 | 96 | 1015.9 |
| 20260902033049 | 25 | 0 | 0.0 | 0.0 | 0.00 | 0.43 | 0.43 | 96 | 1015.9 |
| 20260902032520 | 25 | 0 | 0.0 | 0.0 | 0.00 | 0.43 | 0.43 | 96 | 1015.9 |
| 20260902032024 | 25 | 0 | 0.0 | 0.0 | 0.00 | 0.43 | 0.43 | 96 | 1015.9 |
| 20260902031541 | 25 | 0 | 0.0 | 0.0 | 0.00 | 0.43 | 0.43 | 96 | 1015.9 |
| 20260902031020 | 25 | 0 | 0.0 | 0.0 | 0.00 | 0.43 | 0.43 | 96 | 1016.0 |
| 20260902030521 | 25 | 0 | 0.0 | 0.0 | 0.00 | 0.43 | 0.43 | 96 | 1015.9 |
| 20260902030048 | 25 | 0 | 0.0 | 0.0 | 0.00 | 0.43 | 0.43 | 96 | 1016.0 |
| 20260902025524 | 25 | 0 | 0.0 | 0.0 | 0.00 | 0.43 | 0.43 | 96 | 1016.0 |
| 20260902025025 | 25 | 0 | 0.0 | 3.2 | 0.00 | 0.43 | 0.43 | 96 | 1016.0 |
| 20260902024541 | 25 | 0 | 0.0 | 3.2 | 0.00 | 0.43 | 0.43 | 96 | 1016.0 |
| 20260902024018 | 25 | 55 | 0.0 | 3.2 | 0.00 | 0.43 | 0.43 | 96 | 1016.0 |
| 20260902023518 | 25 | 55 | 0.0 | 3.2 | 0.00 | 0.43 | 0.43 | 96 | 1016.0 |
| 20260902023044 | 25 | 0 | 0.0 | 0.0 | 0.00 | 0.43 | 0.43 | 96 | 1016.0 |
| 20260902022521 | 25 | 0 | 0.0 | 1.6 | 0.00 | 0.43 | 0.43 | 96 | 1016.0 |
| 20260902022022 | 25 | 0 | 0.0 | 1.6 | 0.00 | 0.43 | 0.43 | 96 | 1016.0 |
| 20260902021546 | 25 | 0 | 0.0 | 1.6 | 0.00 | 0.43 | 0.43 | 96 | 1016.0 |
| 20260902021022 | 25 | 0 | 0.0 | 0.0 | 0.00 | 0.43 | 0.43 | 96 | 1015.9 |
| 20260902020520 | 25 | 0 | 0.0 | 0.0 | 0.00 | 0.43 | 0.43 | 96 | 1015.8 |
| 20260902020041 | 25 | 0 | 0.0 | 0.0 | 0.00 | 0.43 | 0.43 | 96 | 1015.8 |
| 20260902015522 | 25 | 0 | 0.0 | 0.0 | 0.00 | 0.43 | 0.43 | 96 | 1015.9 |
| 20260902015019 | 25 | 0 | 0.0 | 0.0 | 0.00 | 0.43 | 0.43 | 96 | 1015.8 |
| 20260902014547 | 25 | 0 | 0.0 | 1.6 | 0.00 | 0.43 | 0.43 | 96 | 1015.8 |
| 20260902014020 | 25 | 0 | 0.0 | 1.6 | 0.00 | 0.43 | 0.43 | 96 | 1015.7 |
| 20260902013520 | 25 | 0 | 0.0 | 1.6 | 0.00 | 0.43 | 0.43 | 96 | 1015.7 |
| 20260902013047 | 25 | 0 | 0.0 | 0.0 | 0.00 | 0.43 | 0.43 | 96 | 1015.6 |
| 20260902012525 | 25 | 0 | 0.0 | 3.2 | 0.00 | 0.43 | 0.43 | 96 | 1015.6 |
| 20260902012024 | 25 | 0 | 0.0 | 3.2 | 0.00 | 0.43 | 0.43 | 96 | 1015.5 |
| 20260902011539 | 25 | 55 | 0.0 | 3.2 | 0.03 | 0.43 | 0.43 | 96 | 1015.4 |
| 20260902011024 | 25 | 55 | 0.0 | 3.2 | 0.03 | 0.43 | 0.43 | 96 | 1015.4 |
| 20260902010523 | 25 | 0 | 0.0 | 3.2 | 0.03 | 0.43 | 0.43 | 96 | 1015.5 |
| 20260902010040 | 25 | 40 | 0.0 | 1.6 | 0.05 | 0.43 | 0.43 | 96 | 1015.5 |
| 20260902005521 | 24 | 0 | 0.0 | 0.0 | 0.05 | 0.43 | 0.43 | 96 | 1015.4 |
| 20260902005020 | 24 | 0 | 0.0 | 0.0 | 0.05 | 0.43 | 0.43 | 96 | 1015.4 |
| 20260902004543 | 24 | 0 | 0.0 | 0.0 | 0.05 | 0.43 | 0.43 | 96 | 1015.4 |
| 20260902004020 | 24 | 0 | 0.0 | 0.0 | 0.05 | 0.43 | 0.43 | 96 | 1015.3 |
| 20260902003520 | 24 | 0 | 0.0 | 4.8 | 0.05 | 0.43 | 0.43 | 96 | 1015.4 |
| 20260902003053 | 24 | 0 | 0.0 | 4.8 | 0.05 | 0.43 | 0.43 | 96 | 1015.5 |
| 20260902002520 | 24 | 39 | 1.6 | 4.8 | 0.05 | 0.43 | 0.43 | 96 | 1015.5 |
| 20260902002027 | 24 | 45 | 1.6 | 4.8 | 0.05 | 0.41 | 0.41 | 96 | 1015.5 |
| 20260902001542 | 24 | 38 | 1.6 | 4.8 | 0.05 | 0.41 | 0.41 | 96 | 1015.4 |
| 20260902001020 | 24 | 40 | 0.0 | 3.2 | 0.05 | 0.41 | 0.41 | 96 | 1015.4 |
| 20260902000520 | 24 | 0 | 0.0 | 4.8 | 0.05 | 0.41 | 0.41 | 96 | 1015.4 |
| 20260902000108 | 24 | 0 | 0.0 | 4.8 | 0.03 | 0.38 | 0.38 | 95 | 1015.3 |
| 20260901235525 | 24 | 0 | 0.0 | 0.0 | 0.05 | 0.38 | 0.38 | 95 | 1015.3 |
| 20260901235024 | 24 | 0 | 0.0 | 0.0 | 0.05 | 0.38 | 0.38 | 95 | 1015.3 |
| 20260901234548 | 24 | 0 | 0.0 | 0.0 | 0.05 | 0.38 | 0.38 | 95 | 1015.3 |
| 20260901234027 | 24 | 0 | 0.0 | 1.6 | 0.08 | 0.38 | 0.38 | 95 | 1015.3 |
| 20260901233523 | 24 | 0 | 0.0 | 3.2 | 0.08 | 0.38 | 0.38 | 95 | 1015.4 |
| 20260901233052 | 24 | 0 | 0.0 | 3.2 | 0.08 | 0.38 | 0.38 | 95 | 1015.3 |
| 20260901232524 | 24 | 0 | 0.0 | 0.0 | 0.10 | 0.38 | 0.38 | 95 | 1015.3 |
| 20260901232026 | 24 | 0 | 0.0 | 0.0 | 0.25 | 0.36 | 0.36 | 95 | 1015.4 |
| 20260901231551 | 24 | 0 | 0.0 | 0.0 | 0.30 | 0.36 | 0.36 | 95 | 1015.3 |
| 20260901231024 | 24 | 0 | 0.0 | 0.0 | 0.36 | 0.36 | 0.36 | 95 | 1015.4 |
| 20260901230525 | 24 | 0 | 0.0 | 0.0 | 0.36 | 0.36 | 0.36 | 95 | 1015.4 |
| 20260901230103 | 24 | 0 | 0.0 | 0.0 | 0.36 | 0.36 | 0.36 | 94 | 1015.4 |
| 20260901225528 | 24 | 0 | 0.0 | 3.2 | 0.33 | 0.33 | 0.33 | 94 | 1015.3 |
| 20260901225025 | 24 | 0 | 0.0 | 3.2 | 0.33 | 0.33 | 0.33 | 94 | 1015.3 |
| 20260901224542 | 24 | 311 | 0.0 | 3.2 | 0.33 | 0.33 | 0.33 | 93 | 1015.3 |
| 20260901224026 | 24 | 0 | 0.0 | 6.4 | 0.30 | 0.30 | 0.30 | 93 | 1015.5 |
| 20260901223523 | 24 | 0 | 0.0 | 14.5 | 0.30 | 0.30 | 0.30 | 92 | 1015.5 |
| 20260901223055 | 25 | 76 | 4.8 | 20.9 | 0.30 | 0.30 | 0.30 | 91 | 1015.4 |
| 20260901222526 | 25 | 103 | 9.7 | 25.7 | 0.25 | 0.25 | 0.25 | 90 | 1015.5 |
| 20260901222028 | 26 | 75 | 12.9 | 25.7 | 0.08 | 0.08 | 0.08 | 88 | 1015.6 |
| 20260901221547 | 27 | 44 | 11.3 | 22.5 | 0.03 | 0.03 | 0.03 | 83 | 1015.6 |
| 20260901221024 | 28 | 79 | 4.8 | 11.3 | 0.00 | 0.00 | 0.00 | 83 | 1015.3 |
| 20260901220529 | 28 | 71 | 1.6 | 11.3 | 0.00 | 0.00 | 0.00 | 83 | 1015.1 |
| 20260901220109 | 28 | 64 | 6.4 | 16.1 | 0.00 | 0.00 | 0.00 | 82 | 1014.9 |
| 20260901215523 | 28 | 77 | 6.4 | 16.1 | 0.00 | 0.23 | 0.00 | 82 | 1014.9 |
| 20260901215025 | 28 | 81 | 6.4 | 12.9 | 0.00 | 0.23 | 0.00 | 80 | 1014.9 |
| 20260901214540 | 29 | 84 | 6.4 | 12.9 | 0.00 | 0.23 | 0.00 | 79 | 1014.7 |
| 20260901214024 | 30 | 82 | 6.4 | 16.1 | 0.00 | 0.23 | 0.00 | 78 | 1014.6 |
| 20260901213524 | 30 | 67 | 9.7 | 16.1 | 0.00 | 0.23 | 0.00 | 78 | 1014.5 |
| 20260901213112 | 30 | 34 | 8.0 | 14.5 | 0.00 | 0.23 | 0.00 | 77 | 1014.4 |
| 20260901212524 | 29 | 81 | 9.7 | 17.7 | 0.00 | 0.23 | 0.00 | 79 | 1014.4 |
| 20260901212025 | 30 | 92 | 9.7 | 17.7 | 0.00 | 0.23 | 0.00 | 76 | 1014.4 |
| 20260901211544 | 30 | 34 | 6.4 | 12.9 | 0.00 | 0.23 | 0.00 | 76 | 1014.6 |
| 20260901211024 | 30 | 44 | 3.2 | 16.1 | 0.00 | 0.23 | 0.00 | 77 | 1014.8 |
| 20260901210524 | 31 | 15 | 6.4 | 16.1 | 0.00 | 0.23 | 0.00 | 76 | 1014.8 |
| 20260901210048 | 30 | 66 | 9.7 | 16.1 | 0.00 | 0.23 | 0.00 | 74 | 1014.7 |
| 20260901205526 | 30 | 65 | 3.2 | 19.3 | 0.00 | 0.38 | 0.00 | 75 | 1014.8 |
| 20260901205025 | 30 | 35 | 6.4 | 19.3 | 0.00 | 0.38 | 0.00 | 76 | 1015.0 |
| 20260901204547 | 30 | 16 | 9.7 | 19.3 | 0.00 | 0.38 | 0.00 | 76 | 1014.9 |
| 20260901204023 | 30 | 88 | 6.4 | 19.3 | 0.00 | 0.38 | 0.00 | 77 | 1014.8 |
| 20260901203525 | 30 | 45 | 8.0 | 16.1 | 0.00 | 0.38 | 0.00 | 76 | 1014.7 |
| 20260901203058 | 30 | 38 | 4.8 | 22.5 | 0.00 | 0.38 | 0.00 | 77 | 1014.6 |
| 20260901202523 | 30 | 57 | 11.3 | 22.5 | 0.00 | 0.38 | 0.00 | 77 | 1014.6 |
| 20260901202027 | 29 | 74 | 9.7 | 17.7 | 0.00 | 0.38 | 0.00 | 78 | 1014.7 |
| 20260901201542 | 29 | 82 | 8.0 | 17.7 | 0.00 | 0.38 | 0.00 | 75 | 1014.9 |
| 20260901201026 | 30 | 74 | 4.8 | 14.5 | 0.00 | 0.38 | 0.00 | 74 | 1015.0 |
| 20260901200525 | 30 | 84 | 4.8 | 14.5 | 0.00 | 0.38 | 0.00 | 76 | 1015.0 |
| 20260901200048 | 30 | 90 | 6.4 | 12.9 | 0.00 | 0.38 | 0.00 | 78 | 1014.9 |
| 20260901195524 | 29 | 115 | 3.2 | 12.9 | 0.00 | 0.38 | 0.00 | 82 | 1015.1 |
| 20260901195023 | 29 | 70 | 6.4 | 12.9 | 0.00 | 0.38 | 0.00 | 79 | 1015.2 |
| 20260901194549 | 29 | 82 | 4.8 | 14.5 | 0.00 | 0.38 | 0.00 | 80 | 1015.3 |
| 20260901194025 | 29 | 49 | 8.0 | 19.3 | 0.00 | 0.38 | 0.00 | 79 | 1015.1 |
| 20260901193524 | 30 | 40 | 8.0 | 20.9 | 0.00 | 0.38 | 0.00 | 79 | 1015.1 |
| 20260901193051 | 30 | 56 | 12.9 | 25.7 | 0.00 | 0.38 | 0.00 | 75 | 1015.1 |
| 20260901192524 | 30 | 70 | 11.3 | 25.7 | 0.00 | 0.38 | 0.00 | 76 | 1015.1 |
| 20260901192025 | 30 | 86 | 8.0 | 25.7 | 0.00 | 0.38 | 0.00 | 76 | 1015.3 |
| 20260901191547 | 30 | 56 | 9.7 | 25.7 | 0.00 | 0.38 | 0.00 | 77 | 1015.3 |
| 20260901191025 | 29 | 60 | 14.5 | 25.7 | 0.00 | 0.38 | 0.00 | 77 | 1015.2 |
| 20260901190524 | 31 | 67 | 14.5 | 25.7 | 0.00 | 0.38 | 0.00 | 74 | 1015.3 |
| 20260901190044 | 30 | 120 | 3.2 | 12.9 | 0.00 | 0.38 | 0.00 | 78 | 1015.2 |
| 20260901185526 | 30 | 0 | 1.6 | 6.4 | 0.00 | 0.38 | 0.00 | 78 | 1015.2 |
| 20260901185024 | 30 | 286 | 0.0 | 6.4 | 0.00 | 0.38 | 0.00 | 84 | 1015.4 |
| 20260901184540 | 30 | 290 | 1.6 | 6.4 | 0.00 | 0.38 | 0.00 | 80 | 1015.5 |
| 20260901184025 | 30 | 271 | 1.6 | 6.4 | 0.00 | 0.38 | 0.00 | 81 | 1015.4 |
| 20260901183525 | 29 | 264 | 0.0 | 4.8 | 0.00 | 0.38 | 0.00 | 83 | 1015.5 |
| 20260901183055 | 28 | 280 | 1.6 | 9.7 | 0.00 | 0.38 | 0.00 | 83 | 1015.5 |
| 20260901182524 | 28 | 286 | 1.6 | 14.5 | 0.00 | 0.38 | 0.00 | 83 | 1015.6 |
| 20260901182025 | 28 | 258 | 4.8 | 14.5 | 0.00 | 0.38 | 0.00 | 84 | 1015.8 |
| 20260901181547 | 27 | 277 | 8.0 | 14.5 | 0.00 | 0.38 | 0.00 | 86 | 1015.7 |
| 20260901181023 | 27 | 279 | 8.0 | 16.1 | 0.00 | 0.38 | 0.00 | 89 | 1015.8 |
| 20260901180527 | 26 | 290 | 8.0 | 16.1 | 0.00 | 0.38 | 0.00 | 88 | 1015.8 |
| 20260901180043 | 26 | 276 | 4.8 | 17.7 | 0.00 | 0.38 | 0.00 | 86 | 1016.0 |
| 20260901175521 | 27 | 266 | 8.0 | 17.7 | 0.00 | 0.38 | 0.00 | 81 | 1016.1 |
| 20260901175025 | 28 | 279 | 6.4 | 14.5 | 0.00 | 0.38 | 0.00 | 81 | 1016.2 |
| 20260901174542 | 29 | 284 | 1.6 | 9.7 | 0.00 | 0.38 | 0.00 | 80 | 1016.2 |
| 20260901174025 | 29 | 308 | 1.6 | 16.1 | 0.00 | 0.38 | 0.00 | 79 | 1016.3 |
| 20260901173524 | 31 | 5 | 6.4 | 16.1 | 0.00 | 0.38 | 0.00 | 74 | 1016.3 |
| 20260901173057 | 32 | 0 | 1.6 | 16.1 | 0.00 | 0.38 | 0.00 | 72 | 1016.2 |
| 20260901172524 | 32 | 251 | 6.4 | 16.1 | 0.00 | 0.38 | 0.00 | 74 | 1016.3 |
| 20260901172025 | 31 | 69 | 4.8 | 9.7 | 0.00 | 0.38 | 0.00 | 72 | 1016.2 |
| 20260901171548 | 31 | 61 | 0.0 | 9.7 | 0.00 | 0.38 | 0.00 | 75 | 1016.3 |
| 20260901171026 | 31 | 86 | 1.6 | 11.3 | 0.00 | 0.38 | 0.00 | 74 | 1016.2 |
| 20260901170523 | 31 | 48 | 3.2 | 11.3 | 0.00 | 0.38 | 0.00 | 74 | 1016.2 |
| 20260901170048 | 30 | 0 | 0.0 | 6.4 | 0.00 | 0.38 | 0.00 | 79 | 1016.3 |
| 20260901165526 | 31 | 256 | 1.6 | 6.4 | 0.00 | 0.38 | 0.00 | 77 | 1016.4 |
| 20260901165025 | 30 | 0 | 0.0 | 6.4 | 0.00 | 0.38 | 0.00 | 79 | 1016.4 |
| 20260901164550 | 30 | 0 | 1.6 | 6.4 | 0.00 | 0.38 | 0.00 | 79 | 1016.5 |
| 20260901164028 | 30 | 29 | 1.6 | 11.3 | 0.00 | 0.38 | 0.00 | 79 | 1016.5 |